Data for 01/10/2018

Time Sea-Level Adjusted Pressure Absolute Pressure Temperature Relative Humidity Dew Point   
(mb) (inHg) (mb) (inHg) (C) (F) (%) (C) (F)
00:05 1002 29.59 831 24.54 2.7 36.9 89 1.1 34
00:10 1002 29.59 831 24.54 2.8 37 89 1.2 34.2
00:15 1002 29.59 831 24.54 2.8 37.1 89 1.3 34.3
00:20 1002 29.59 831 24.54 2.9 37.3 89 1.3 34.4
00:25 1002 29.59 831 24.54 3 37.5 89 1.4 34.5
00:30 1002 29.59 831 24.54 3 37.4 89 1.4 34.4
00:35 1002 29.59 831 24.54 3 37.4 89 1.4 34.6
00:40 1002 29.59 831 24.54 3 37.3 89 1.3 34.4
00:45 1002 29.59 831 24.54 2.9 37.1 90 1.3 34.4
00:50 1002 29.59 831 24.54 2.8 37.1 90 1.4 34.5
00:55 1002 29.59 831 24.54 2.8 37 90 1.4 34.4
01:00 1002 29.59 831 24.54 2.7 36.9 91 1.4 34.5
01:05 1002 29.59 831 24.54 2.7 36.9 91 1.4 34.5
01:10 1002 29.59 831 24.54 2.7 36.9 91 1.4 34.5
01:15 1002 29.59 831 24.54 2.7 36.8 91 1.3 34.4
01:20 1002 29.59 831 24.54 2.6 36.7 91 1.3 34.3
01:25 1002 29.59 831 24.54 2.6 36.6 91 1.2 34.2
01:30 1002 29.59 831 24.54 2.5 36.6 91 1.2 34.2
01:35 1002 29.59 831 24.54 2.5 36.5 91 1.2 34.1
01:40 1002 29.59 831 24.54 2.5 36.5 91 1.2 34.1
01:45 1001 29.56 831 24.54 2.5 36.5 91 1.1 34.1
01:50 1001 29.56 830 24.51 2.5 36.4 91 1.1 34
01:55 1001 29.56 830 24.51 2.4 36.4 91 1.1 33.9
02:00 1001 29.56 830 24.51 2.4 36.3 91 1.1 33.9
02:05 1001 29.56 830 24.51 2.4 36.3 91 1 33.9
02:10 1001 29.56 830 24.51 2.3 36.2 91 1 33.8
02:15 1001 29.56 830 24.51 2.3 36.1 91 1 33.8
02:20 1001 29.56 830 24.51 2.3 36.1 91 1 33.8
02:25 1001 29.56 830 24.51 2.4 36.3 91 1.1 33.9
02:30 1001 29.56 830 24.51 2.5 36.5 91 1.1 34
02:35 1001 29.56 830 24.51 2.6 36.7 90 1.1 34.1
02:40 1001 29.56 830 24.51 2.7 36.8 89 1.1 34
02:45 1001 29.56 830 24.51 2.8 37 89 1.1 33.9
02:50 1001 29.56 830 24.51 2.8 37 89 1.1 33.9
02:55 1001 29.56 830 24.51 2.6 36.7 89 1 33.7
03:00 1001 29.56 830 24.51 2.3 36.1 90 0.8 33.4
03:05 1001 29.56 831 24.54 2.1 35.8 91 0.8 33.4
03:10 1001 29.56 831 24.54 2.1 35.7 91 0.8 33.4
03:15 1002 29.59 831 24.54 2 35.6 92 0.7 33.3
03:20 1002 29.59 831 24.54 1.9 35.5 92 0.8 33.4
03:25 1001 29.56 831 24.54 1.9 35.3 92 0.7 33.3
03:30 1001 29.56 831 24.54 1.7 35.1 92 0.6 33.1
03:35 1001 29.56 831 24.54 1.7 35.1 93 0.6 33.2
03:40 1002 29.59 831 24.54 1.7 35 93 0.6 33.1
03:45 1002 29.59 831 24.54 1.7 35.1 93 0.7 33.2
03:50 1002 29.59 831 24.54 1.7 35 93 0.6 33.1
03:55 1002 29.59 831 24.54 1.5 34.8 93 0.5 32.9
04:00 1002 29.59 831 24.54 1.5 34.6 93 0.5 32.8
04:05 1001 29.56 831 24.54 1.4 34.5 93 0.4 32.8
04:10 1002 29.59 831 24.54 1.3 34.4 93 0.4 32.6
04:15 1002 29.59 831 24.54 1.2 34.2 93 0.2 32.4
04:20 1002 29.59 831 24.54 1.1 34 93 0.1 32.1
04:25 1002 29.59 831 24.54 0.8 33.4 93 -0.3 31.5
04:30 1002 29.59 831 24.54 0.4 32.8 93 -0.6 30.9
04:35 1002 29.59 831 24.54 0.3 32.5 93 -0.7 30.7
04:40 1002 29.59 831 24.54 0.2 32.3 93 -0.8 30.5
04:45 1002 29.59 832 24.57 0.1 32.1 93 -0.9 30.4
04:50 1003 29.62 832 24.57 0 32 94 -0.9 30.4
04:55 1003 29.62 832 24.57 0 32 94 -0.9 30.4
05:00 1003 29.62 832 24.57 0 32 94 -0.9 30.4
05:05 1003 29.62 832 24.57 -0 32 94 -0.9 30.4
05:10 1003 29.62 833 24.6 -0 31.9 94 -0.9 30.3
05:15 1004 29.65 833 24.6 -0.1 31.8 94 -0.9 30.3
05:20 1004 29.65 833 24.6 -0.1 31.9 94 -0.9 30.3
05:25 1004 29.65 833 24.6 -0.1 31.8 94 -1 30.3
05:30 1004 29.65 833 24.6 -0.2 31.7 94 -1 30.2
05:35 1004 29.65 833 24.6 -0.1 31.7 94 -1 30.2
05:40 1004 29.65 833 24.6 -0.2 31.7 94 -1 30.2
05:45 1004 29.65 833 24.6 -0.1 31.7 94 -1 30.2
05:50 1004 29.65 833 24.6 -0.2 31.7 94 -1 30.2
05:55 1004 29.65 833 24.6 -0.2 31.7 94 -1 30.2
06:00 1004 29.65 834 24.63 -0.2 31.7 94 -1 30.2
06:05 1004 29.65 834 24.63 -0.2 31.6 94 -1 30.1
06:10 1005 29.68 834 24.63 -0.3 31.5 94 -1.1 30.1
06:15 1005 29.68 834 24.63 -0.3 31.4 94 -1.2 29.9
06:20 1005 29.68 834 24.63 -0.7 30.8 95 -1.5 29.4
06:25 1005 29.68 834 24.63 -1.1 30.1 95 -1.8 28.7
06:30 1005 29.68 834 24.63 -1.4 29.5 95 -2.1 28.1
06:35 1005 29.68 834 24.63 -1.6 29.1 95 -2.4 27.7
06:40 1005 29.68 835 24.66 -1.8 28.8 95 -2.5 27.5
06:45 1005 29.68 835 24.66 -1.8 28.7 95 -2.6 27.4
06:50 1006 29.71 835 24.66 -2 28.4 95 -2.7 27.1
06:55 1006 29.71 835 24.66 -2.2 28 95 -2.9 26.7
07:00 1006 29.71 835 24.66 -2.5 27.6 95 -3.2 26.3
07:05 1006 29.71 835 24.66 -2.6 27.3 95 -3.4 25.9
07:10 1006 29.71 835 24.66 -2.8 27 95 -3.6 25.6
07:15 1006 29.71 835 24.66 -2.9 26.8 95 -3.6 25.4
07:20 1006 29.71 835 24.66 -2.9 26.8 94 -3.6 25.4
07:25 1006 29.71 835 24.66 -2.8 27 94 -3.6 25.6
07:30 1006 29.71 836 24.69 -2.8 27 94 -3.6 25.5
07:35 1006 29.71 836 24.69 -2.9 26.8 94 -3.7 25.3
07:40 1007 29.74 836 24.69 -3.1 26.3 94 -4 24.8
07:45 1007 29.74 836 24.69 -3.3 26.1 94 -4.1 24.6
07:50 1007 29.74 836 24.69 -3.3 26 94 -4.2 24.5
07:55 1007 29.74 836 24.69 -3.4 25.9 94 -4.3 24.3
08:00 1007 29.74 836 24.69 -3.4 25.9 94 -4.2 24.4
08:05 1007 29.74 836 24.69 -3.3 26.1 94 -4.2 24.5
08:10 1007 29.74 836 24.69 -3.2 26.3 94 -4 24.7
08:15 1007 29.74 836 24.69 -3 26.5 94 -3.9 24.9
08:20 1007 29.74 836 24.69 -2.9 26.7 94 -3.8 25.2
08:25 1007 29.74 837 24.72 -2.7 27.1 94 -3.6 25.5
08:30 1008 29.77 837 24.72 -2.5 27.5 94 -3.3 26
08:35 1008 29.77 837 24.72 -2.6 27.4 94 -3.5 25.8
08:40 1008 29.77 837 24.72 -2.7 27.1 94 -3.6 25.5
08:45 1008 29.77 837 24.72 -2.8 27 94 -3.7 25.4
08:50 1008 29.77 837 24.72 -2.7 27.1 94 -3.6 25.5
08:55 1008 29.77 837 24.72 -2.6 27.4 94 -3.4 25.9
09:00 1008 29.77 837 24.72 -2.6 27.4 94 -3.5 25.8
09:05 1008 29.77 837 24.72 -3 26.7 93 -3.9 25
09:10 1008 29.77 837 24.72 -3 26.7 94 -3.9 25.1
09:15 1008 29.77 837 24.72 -2.8 26.9 94 -3.7 25.4
09:20 1008 29.77 838 24.75 -2.5 27.4 94 -3.4 26
09:25 1009 29.8 838 24.75 -2.5 27.6 93 -3.4 25.8
09:30 1009 29.8 838 24.75 -3.4 25.8 93 -4.4 24
09:35 1009 29.8 838 24.75 -3.6 25.4 93 -4.6 23.7
09:40 1009 29.8 838 24.75 -3.7 25.3 93 -4.7 23.5
09:45 1009 29.8 838 24.75 -3.8 25.1 93 -4.8 23.3
09:50 1009 29.8 838 24.75 -3.9 25 93 -4.9 23.1
09:55 1009 29.8 838 24.75 -3.9 25 93 -4.9 23.2
10:00 1009 29.8 838 24.75 -3.9 25.1 93 -4.9 23.2
10:05 1009 29.8 838 24.75 -3.8 25.1 93 -4.9 23.3
10:10 1009 29.8 838 24.75 -3.9 24.9 92 -5 23
10:15 1009 29.8 838 24.75 -4 24.9 92 -5.1 22.8
10:20 1009 29.8 838 24.75 -4.1 24.6 92 -5.2 22.6
10:25 1009 29.8 838 24.75 -4.2 24.4 92 -5.3 22.4
10:30 1009 29.8 838 24.75 -4.1 24.7 92 -5.2 22.7
10:35 1009 29.8 838 24.75 -3.9 24.9 92 -5 23
10:40 1009 29.8 838 24.75 -3.8 25.3 92 -4.8 23.3
10:45 1009 29.8 838 24.75 -3.8 25.2 92 -4.9 23.2
10:50 1009 29.8 838 24.75 -3.7 25.3 92 -4.9 23.2
10:55 1009 29.8 839 24.78 -3.8 25.1 91 -5 22.9
11:00 1009 29.8 839 24.78 -4 24.8 91 -5.3 22.5
11:05 1009 29.8 839 24.78 -4.2 24.5 90 -5.5 22.1
11:10 1009 29.8 839 24.78 -4.3 24.2 91 -5.6 21.9
11:15 1010 29.83 839 24.78 -4.3 24.3 91 -5.6 21.9
11:20 1010 29.83 839 24.78 -4.3 24.3 90 -5.7 21.8
11:25 1010 29.83 839 24.78 -4.4 24 89 -6 21.2
11:30 1010 29.83 839 24.78 -4.8 23.4 88 -6.4 20.4
11:35 1010 29.83 839 24.78 -5.1 22.9 88 -6.7 19.9
11:40 1010 29.83 839 24.78 -5.2 22.6 88 -6.9 19.6
11:45 1010 29.83 839 24.78 -5.3 22.5 88 -7 19.4
11:50 1010 29.83 839 24.78 -5.3 22.5 88 -6.9 19.6
11:55 1010 29.83 839 24.78 -5.1 22.8 88 -6.8 19.8
12:00 1010 29.83 839 24.78 -5 23.1 88 -6.6 20.1
12:05 1010 29.83 839 24.78 -4.8 23.4 88 -6.4 20.5
12:10 1010 29.83 839 24.78 -4.6 23.7 86 -6.6 20.2
12:15 1010 29.83 839 24.78 -5.1 22.9 86 -7 19.3
12:20 1010 29.83 839 24.78 -5 23 87 -6.8 19.8
12:25 1010 29.83 839 24.78 -4.7 23.6 85 -6.9 19.6
12:30 1010 29.83 839 24.78 -4.5 24 84 -6.7 19.9
12:35 1010 29.83 839 24.78 -4.3 24.3 80 -7.2 19.1
12:40 1010 29.83 839 24.78 -4.9 23.2 84 -7.2 19
12:45 1010 29.83 839 24.78 -5 23 85 -7.1 19.2
12:50 1010 29.83 839 24.78 -5.1 22.8 85 -7.3 18.8
12:55 1010 29.83 840 24.81 -5.4 22.3 84 -7.6 18.3
13:00 1010 29.83 840 24.81 -5.5 22 84 -7.8 18
13:05 1010 29.83 840 24.81 -5.6 21.9 85 -7.8 18
13:10 1011 29.85 840 24.81 -5.5 22.2 84 -7.7 18.1
13:15 1011 29.85 840 24.81 -5.7 21.7 83 -8.2 17.3
13:20 1011 29.85 840 24.81 -6 21.2 84 -8.3 17
13:25 1011 29.85 840 24.81 -6.1 21.1 85 -8.3 17.1
13:30 1011 29.85 840 24.81 -6 21.2 84 -8.3 17.1
13:35 1011 29.85 840 24.81 -5.9 21.4 84 -8.1 17.4
13:40 1011 29.85 840 24.81 -5.7 21.7 84 -8.1 17.5
13:45 1011 29.85 840 24.81 -5.7 21.7 83 -8.2 17.3
13:50 1011 29.85 840 24.81 -5.8 21.5 82 -8.4 17
13:55 1011 29.85 841 24.83 -6.1 21.1 83 -8.5 16.7
14:00 1011 29.85 841 24.83 -6.4 20.5 82 -9 15.9
14:05 1011 29.85 841 24.83 -6.8 19.8 84 -9.1 15.7
14:10 1011 29.85 841 24.83 -6.7 19.9 85 -8.9 16
14:15 1011 29.85 841 24.83 -7 19.4 83 -9.5 15
14:20 1011 29.85 841 24.83 -7.3 18.9 85 -9.5 15
14:25 1012 29.88 841 24.83 -7.3 18.9 86 -9.3 15.3
14:30 1012 29.88 841 24.83 -7.1 19.2 86 -9 15.8
14:35 1012 29.88 841 24.83 -6.9 19.5 86 -8.8 16.1
14:40 1012 29.88 841 24.83 -6.9 19.6 86 -8.8 16.2
14:45 1012 29.88 841 24.83 -6.7 19.9 86 -8.7 16.3
14:50 1012 29.88 841 24.83 -6.8 19.8 85 -9 15.9
14:55 1012 29.88 841 24.83 -6.8 19.8 85 -8.9 16
15:00 1012 29.88 841 24.83 -6.7 19.9 85 -8.8 16.1
15:05 1012 29.88 841 24.83 -7.1 19.3 85 -9.2 15.4
15:10 1012 29.88 841 24.83 -7.4 18.6 86 -9.4 15.1
15:15 1012 29.88 841 24.83 -7.5 18.5 87 -9.3 15.2
15:20 1012 29.88 841 24.83 -7.4 18.6 88 -9.2 15.5
15:25 1012 29.88 841 24.83 -7.4 18.6 87 -9.2 15.4
15:30 1012 29.88 841 24.83 -7.5 18.5 87 -9.3 15.3
15:35 1012 29.88 841 24.83 -7.5 18.6 87 -9.2 15.4
15:40 1012 29.88 841 24.83 -7.4 18.7 88 -9.1 15.6
15:45 1012 29.88 842 24.86 -7.3 18.9 88 -9 15.8
15:50 1012 29.88 842 24.86 -7.3 18.8 88 -9 15.8
15:55 1012 29.88 842 24.86 -7.3 19 88 -8.9 15.9
16:00 1012 29.88 842 24.86 -7.1 19.2 89 -8.7 16.3
16:05 1013 29.91 842 24.86 -6.9 19.6 89 -8.4 16.8
16:10 1013 29.91 842 24.86 -6.7 20 89 -8.2 17.2
16:15 1013 29.91 842 24.86 -6.5 20.2 89 -8.1 17.4
16:20 1013 29.91 842 24.86 -6.5 20.2 87 -8.3 17.1
16:25 1013 29.91 842 24.86 -6.7 20 86 -8.6 16.6
16:30 1013 29.91 842 24.86 -7.1 19.3 86 -9 15.9
16:35 1013 29.91 842 24.86 -7.2 19.1 87 -9 15.8
16:40 1013 29.91 843 24.89 -7.3 18.9 87 -9.1 15.6
16:45 1013 29.91 843 24.89 -7.4 18.7 87 -9.2 15.5
16:50 1013 29.91 843 24.89 -7.5 18.5 87 -9.4 15.2
16:55 1013 29.91 843 24.89 -7.8 18 85 -10 14.1
17:00 1014 29.94 843 24.89 -8.1 17.4 86 -10 14
17:05 1014 29.94 843 24.89 -8 17.5 87 -9.8 14.3
17:10 1014 29.94 843 24.89 -8 17.7 87 -9.7 14.5
17:15 1014 29.94 843 24.89 -7.9 17.8 88 -9.6 14.7
17:20 1014 29.94 843 24.89 -7.9 17.8 87 -9.6 14.7
17:25 1014 29.94 843 24.89 -7.9 17.7 87 -9.7 14.6
17:30 1014 29.94 843 24.89 -7.9 17.8 87 -9.7 14.6
17:35 1014 29.94 843 24.89 -7.9 17.8 87 -9.7 14.6
17:40 1014 29.94 843 24.89 -7.9 17.8 87 -9.7 14.6
17:45 1014 29.94 843 24.89 -7.9 17.7 87 -9.7 14.5
17:50 1014 29.94 843 24.89 -8.1 17.5 87 -9.9 14.2
17:55 1014 29.94 844 24.92 -8.1 17.4 87 -9.9 14.2
18:00 1014 29.94 844 24.92 -8.2 17.2 86 -10.2 13.6
18:05 1014 29.94 844 24.92 -8.5 16.8 86 -10.4 13.3
18:10 1014 29.94 844 24.92 -8.6 16.4 86 -10.6 13
18:15 1015 29.97 844 24.92 -8.8 16.3 87 -10.5 13
18:20 1015 29.97 844 24.92 -8.8 16.2 87 -10.6 12.9
18:25 1015 29.97 844 24.92 -8.9 16 87 -10.7 12.8
18:30 1015 29.97 844 24.92 -8.9 15.9 87 -10.7 12.8
18:35 1015 29.97 844 24.92 -8.9 15.9 88 -10.6 12.9
18:40 1015 29.97 844 24.92 -8.9 15.9 88 -10.6 12.9
18:45 1015 29.97 844 24.92 -8.9 16.1 88 -10.5 13.1
18:50 1015 29.97 844 24.92 -8.9 16 88 -10.5 13.1
18:55 1015 29.97 844 24.92 -8.9 16.1 88 -10.5 13.1
19:00 1015 29.97 844 24.92 -8.8 16.1 88 -10.5 13.2
19:05 1015 29.97 844 24.92 -8.8 16.1 88 -10.4 13.2
19:10 1015 29.97 844 24.92 -8.8 16.1 88 -10.4 13.2
19:15 1015 29.97 844 24.92 -8.9 16.1 88 -10.5 13.1
19:20 1015 29.97 844 24.92 -8.9 16 88 -10.6 13
19:25 1015 29.97 844 24.92 -9 15.9 88 -10.6 12.9
19:30 1015 29.97 844 24.92 -9 15.7 88 -10.7 12.8
19:35 1015 29.97 844 24.92 -9 15.8 88 -10.6 12.9
19:40 1015 29.97 844 24.92 -9.1 15.6 88 -10.8 12.5
19:45 1015 29.97 844 24.92 -9.3 15.2 88 -11 12.2
19:50 1015 29.97 844 24.92 -9.4 15.1 88 -11.1 12.1
19:55 1015 29.97 844 24.92 -9.5 15 88 -11.1 12
20:00 1015 29.97 844 24.92 -9.5 14.9 88 -11.1 12
20:05 1015 29.97 844 24.92 -9.5 14.8 88 -11.1 12
20:10 1015 29.97 844 24.92 -9.6 14.8 89 -11.1 12
20:15 1015 29.97 844 24.92 -9.6 14.7 88 -11.2 11.9
20:20 1015 29.97 844 24.92 -9.7 14.6 88 -11.2 11.8
20:25 1015 29.97 844 24.92 -9.7 14.5 88 -11.3 11.7
20:30 1015 29.97 844 24.92 -9.7 14.5 89 -11.2 11.8
20:35 1015 29.97 844 24.92 -9.7 14.6 89 -11.2 11.9
20:40 1015 29.97 844 24.92 -9.6 14.8 89 -11.1 12.1
20:45 1015 29.97 845 24.95 -9.4 15.2 89 -10.8 12.6
20:50 1015 29.97 845 24.95 -9.2 15.5 90 -10.5 13.1
20:55 1016 30 845 24.95 -8.6 16.6 90 -9.9 14.1
21:00 1016 30 845 24.95 -8.3 17.1 89 -9.8 14.4
21:05 1016 30 845 24.95 -8.2 17.3 88 -9.8 14.4
21:10 1016 30 845 24.95 -8 17.6 88 -9.6 14.7
21:15 1016 30 845 24.95 -7.8 18 87 -9.5 14.9
21:20 1016 30 845 24.95 -7.6 18.3 87 -9.4 15.1
21:25 1016 30 845 24.95 -7.4 18.8 86 -9.3 15.3
21:30 1016 30 845 24.95 -7.3 18.9 87 -9.1 15.5
21:35 1016 30 845 24.95 -7.3 18.9 87 -9.1 15.6
21:40 1016 30 845 24.95 -7.4 18.7 86 -9.3 15.3
21:45 1016 30 845 24.95 -7.5 18.5 86 -9.5 15
21:50 1016 30 845 24.95 -7.6 18.4 86 -9.6 14.8
21:55 1016 30 845 24.95 -7.6 18.4 85 -9.7 14.6
22:00 1016 30 845 24.95 -7.5 18.5 85 -9.6 14.7
22:05 1016 30 845 24.95 -7.5 18.5 86 -9.5 14.9
22:10 1016 30 845 24.95 -7.5 18.6 86 -9.4 15.1
22:15 1016 30 845 24.95 -7.5 18.6 87 -9.3 15.3
22:20 1016 30 845 24.95 -7.4 18.7 87 -9.2 15.4
22:25 1016 30 845 24.95 -7.2 19 86 -9.1 15.6
22:30 1016 30 845 24.95 -7.1 19.2 86 -9 15.7
22:35 1016 30 845 24.95 -7 19.4 86 -9 15.9
22:40 1016 30 845 24.95 -6.9 19.5 86 -9 15.9
22:45 1016 30 845 24.95 -6.8 19.8 85 -8.9 16
22:50 1016 30 845 24.95 -6.7 20 85 -8.8 16.2
22:55 1016 30 845 24.95 -6.6 20.1 85 -8.8 16.2
23:00 1016 30 845 24.95 -6.6 20.1 84 -8.9 16
23:05 1016 30 845 24.95 -6.5 20.4 83 -8.8 16.1
23:10 1016 30 845 24.95 -6.2 20.8 83 -8.7 16.3
23:15 1016 30 845 24.95 -5.9 21.3 83 -8.4 16.8
23:20 1016 30 845 24.95 -5.9 21.4 83 -8.3 17
23:25 1016 30 845 24.95 -5.9 21.3 83 -8.4 16.9
23:30 1016 30 845 24.95 -5.9 21.4 86 -7.9 17.7
23:35 1016 30 845 24.95 -5.6 21.9 89 -7.2 19
23:40 1016 30 845 24.95 -5.1 22.8 87 -6.9 19.5
23:45 1016 30 845 24.95 -4.9 23.2 86 -6.8 19.7
23:50 1016 30 845 24.95 -4.7 23.5 83 -7.2 19
23:55 1016 30 845 24.95 -4.3 24.3 75 -8.1 17.4
24:00 1016 30 845 24.95 -3.8 25.2 68 -8.9 16.1